Edenton, NC

4:39 AM EST on December 10, 2016 (GMT -0500)
Northeastern Regional

Weather History for KEDE - November, 2013

Change the Weather History Date:

Wednesday, November 13, 2013

  Actual Average Record
Temperature  
Mean Temperature 36 °F -  
Max Temperature 44 °F 62 °F 80 °F (1964)
Min Temperature 28 °F 42 °F 25 °F (1952)
Degree Days  
Heating Degree Days 29    
Moisture  
Dew Point 22 °F    
Average Humidity 59    
Maximum Humidity 86    
Minimum Humidity 35    
Precipitation  
Precipitation 0.02 in - - ()
Sea Level Pressure  
Sea Level Pressure 30.44 in    
Wind  
Wind Speed 9 mph (North)    
Max Wind Speed 21 mph    
Max Gust Speed 30 mph    
Visibility 10 miles    
Events      
Averages and records for this station are not official NWS values.
T = Trace of Precipitation, MM = Missing Value Source: NWS Daily Summary

Daily Weather History Graph

Daily Weather History Graph

Search for Another Location

Airport or City:

Trip Planner

Search our weather history database for the weather conditions in past years. The results will help you decide how hot, cold, wet, or windy it might be!

Date:

Astronomy

Nov. 13, 2013 Rise Set
Actual Time 6:41 AM EST 4:59 PM EST
Civil Twilight 6:13 AM EST 5:26 PM EST
Nautical Twilight 5:42 AM EST 5:57 PM EST
Astronomical Twilight 5:12 AM EST 6:28 PM EST
Moon 2:39 PM EST (11/13) 2:38 AM EST (11/13)
Length of Visible Light 11h 13m
Length of Day
10h 18m
Waxing Gibbous, 84% of the Moon is Illuminated
Nov 13
Waxing Gibbous
Nov 17
Full
Nov 25
Last Quarter
Dec 2
New
Dec 9
First Quarter

Hourly Weather History & Observations

Time (EST) Temp. Windchill Dew Point Humidity Pressure Visibility Wind Dir Wind Speed Gust Speed Precip Events Conditions
12:15 AM 35.8 °F - 29.1 °F 77% 30.36 in 10.0 mi Calm Calm - N/A   Unknown
12:35 AM 35.6 °F - 30.2 °F 81% 30.36 in 10.0 mi Calm Calm - N/A   Unknown
12:55 AM 35.8 °F 31.9 °F 28.9 °F 76% 30.36 in 10.0 mi North 4.6 mph - N/A   Unknown
1:15 AM 36.5 °F 29.7 °F 24.8 °F 63% 30.36 in 10.0 mi North 9.2 mph - N/A   Unknown
1:35 AM 35.6 °F 28.0 °F 23.5 °F 62% 30.36 in 10.0 mi North 10.4 mph - N/A   Unknown
1:55 AM 35.4 °F 26.4 °F 21.9 °F 58% 30.37 in 10.0 mi North 13.8 mph 20.7 mph N/A   Unknown
2:15 AM 34.5 °F 25.7 °F 21.6 °F 59% 30.36 in 10.0 mi North 12.7 mph 17.3 mph N/A   Unknown
2:35 AM 34.0 °F 24.6 °F 20.7 °F 58% 30.36 in 10.0 mi North 13.8 mph 17.3 mph N/A   Unknown
2:55 AM 33.8 °F 24.3 °F 20.3 °F 58% 30.37 in 10.0 mi North 13.8 mph 19.6 mph N/A   Unknown
3:15 AM 33.4 °F 23.5 °F 20.5 °F 59% 30.37 in 10.0 mi North 15.0 mph 18.4 mph N/A   Unknown
3:35 AM 33.1 °F 23.0 °F 20.8 °F 61% 30.38 in 10.0 mi North 15.0 mph 20.7 mph N/A   Unknown
3:55 AM 33.1 °F 24.4 °F 21.0 °F 61% 30.38 in 10.0 mi North 11.5 mph - N/A   Unknown
4:15 AM 32.9 °F 23.7 °F 21.0 °F 62% 30.38 in 10.0 mi North 12.7 mph 19.6 mph N/A   Unknown
4:35 AM 32.7 °F 23.0 °F 21.4 °F 63% 30.38 in 10.0 mi North 13.8 mph - N/A   Unknown
4:55 AM 32.2 °F 22.3 °F 21.4 °F 64% 30.39 in 10.0 mi North 13.8 mph - N/A   Unknown
5:15 AM 32.0 °F 23.0 °F 21.4 °F 65% 30.40 in 10.0 mi North 11.5 mph - N/A   Unknown
5:35 AM 32.0 °F 21.6 °F 21.4 °F 65% 30.41 in 10.0 mi North 15.0 mph - N/A   Unknown
5:55 AM 32.2 °F 21.8 °F 21.2 °F 64% 30.41 in 10.0 mi North 15.0 mph 20.7 mph N/A   Unknown
6:15 AM 32.0 °F 22.5 °F 21.2 °F 64% 30.42 in 10.0 mi North 12.7 mph 18.4 mph N/A   Unknown
6:35 AM 32.0 °F 22.1 °F 21.0 °F 64% 30.43 in 10.0 mi North 13.8 mph 19.6 mph N/A   Unknown
6:55 AM 32.0 °F 22.1 °F 20.8 °F 63% 30.43 in 10.0 mi North 13.8 mph - N/A   Unknown
7:15 AM 32.0 °F 22.5 °F 21.0 °F 64% 30.44 in 10.0 mi North 12.7 mph - N/A   Unknown
7:35 AM 32.5 °F 22.7 °F 21.6 °F 64% 30.45 in 10.0 mi North 13.8 mph - N/A   Unknown
7:55 AM 33.8 °F 24.3 °F 21.4 °F 60% 30.46 in 10.0 mi North 13.8 mph 21.9 mph N/A   Unknown
8:15 AM 34.7 °F 24.3 °F 21.6 °F 59% 30.47 in 10.0 mi North 17.3 mph 21.9 mph N/A   Unknown
8:35 AM 35.8 °F 26.9 °F 22.1 °F 58% 30.47 in 10.0 mi North 13.8 mph 24.2 mph N/A   Unknown
8:55 AM 36.7 °F 26.9 °F 21.9 °F 55% 30.48 in 10.0 mi North 17.3 mph 25.3 mph N/A   Unknown
9:15 AM 37.6 °F 27.4 °F 21.7 °F 53% 30.48 in 10.0 mi North 19.6 mph 29.9 mph N/A   Unknown
9:35 AM 37.9 °F 29.6 °F 20.8 °F 50% 30.48 in 10.0 mi North 13.8 mph 24.2 mph N/A   Unknown
9:55 AM 39.4 °F 29.8 °F 22.3 °F 50% 30.48 in 10.0 mi North 19.6 mph 25.3 mph N/A   Unknown
10:15 AM 40.1 °F 31.3 °F 21.4 °F 47% 30.47 in 10.0 mi North 17.3 mph 25.3 mph N/A   Unknown
10:35 AM 40.5 °F 32.5 °F 20.5 °F 45% 30.47 in 10.0 mi North 15.0 mph 26.5 mph N/A   Unknown
10:55 AM 41.2 °F 32.7 °F 20.5 °F 44% 30.47 in 10.0 mi North 17.3 mph 28.8 mph N/A   Unknown
11:15 AM 42.1 °F 34.5 °F 20.3 °F 42% 30.46 in 10.0 mi NNE 15.0 mph 24.2 mph N/A   Unknown
11:35 AM 42.6 °F 35.9 °F 19.2 °F 39% 30.45 in 10.0 mi North 12.7 mph 24.2 mph N/A   Unknown
11:55 AM 42.6 °F 33.8 °F 18.3 °F 38% 30.44 in 10.0 mi North 20.7 mph 26.5 mph N/A   Unknown
12:15 PM 43.3 °F 36.8 °F 18.1 °F 36% 30.44 in 10.0 mi North 12.7 mph 25.3 mph N/A   Unknown
12:35 PM 43.2 °F 36.6 °F 18.9 °F 38% 30.43 in 10.0 mi NW 12.7 mph 21.9 mph N/A   Unknown
12:55 PM 43.7 °F 36.3 °F 19.6 °F 38% 30.43 in 10.0 mi North 16.1 mph - N/A   Unknown
1:15 PM 43.9 °F 36.2 °F 19.2 °F 37% 30.43 in 10.0 mi North 17.3 mph 21.9 mph N/A   Unknown
1:35 PM 44.4 °F 37.9 °F 19.0 °F 36% 30.43 in 10.0 mi North 13.8 mph 20.7 mph N/A   Unknown
1:55 PM 44.8 °F 38.7 °F 19.0 °F 36% 30.43 in 10.0 mi NNW 12.7 mph 18.4 mph N/A   Unknown
2:15 PM 44.4 °F 38.2 °F 18.1 °F 35% 30.43 in 10.0 mi NNW 12.7 mph 19.6 mph N/A   Unknown
2:35 PM 44.6 °F 38.1 °F 18.3 °F 35% 30.43 in 10.0 mi NNW 13.8 mph 21.9 mph N/A   Unknown
2:55 PM 44.4 °F 37.5 °F 18.1 °F 35% 30.43 in 10.0 mi North 15.0 mph 21.9 mph N/A   Unknown
3:15 PM 44.4 °F 40.0 °F 18.7 °F 36% 30.43 in 10.0 mi NNW 8.1 mph 16.1 mph N/A   Unknown
3:35 PM 43.9 °F 39.9 °F 18.1 °F 36% 30.43 in 10.0 mi North 6.9 mph - N/A   Unknown
3:55 PM 43.7 °F 38.6 °F 19.0 °F 37% 30.43 in 10.0 mi NNW 9.2 mph 17.3 mph N/A   Unknown
4:15 PM 43.2 °F 39.0 °F 19.9 °F 40% 30.44 in 10.0 mi North 6.9 mph - N/A   Unknown
4:35 PM 41.9 °F 37.5 °F 20.3 °F 42% 30.45 in 10.0 mi North 6.9 mph - N/A   Unknown
4:55 PM 39.7 °F 36.5 °F 21.6 °F 48% 30.46 in 10.0 mi North 4.6 mph - N/A   Unknown
5:15 PM 39.6 °F 37.4 °F 22.1 °F 50% 30.46 in 10.0 mi NNW 3.5 mph - N/A   Unknown
5:35 PM 38.1 °F - 23.5 °F 56% 30.47 in 10.0 mi Calm Calm - N/A   Unknown
5:55 PM 36.0 °F - 24.6 °F 63% 30.48 in 10.0 mi Calm Calm - N/A   Unknown
6:15 PM 34.0 °F 31.0 °F 24.4 °F 68% 30.47 in 10.0 mi NNW 3.5 mph - N/A   Unknown
6:35 PM 33.8 °F - 24.6 °F 69% 30.47 in 10.0 mi Calm Calm - N/A   Unknown
6:55 PM 32.5 °F - 23.5 °F 69% 30.48 in 10.0 mi Calm Calm - N/A   Unknown
7:15 PM 31.8 °F - 24.1 °F 73% 30.48 in 10.0 mi Calm Calm - N/A   Unknown
7:35 PM 32.0 °F - 24.6 °F 74% 30.48 in 10.0 mi Calm Calm - N/A   Unknown
7:55 PM 31.6 °F - 24.8 °F 76% 30.48 in 10.0 mi Calm Calm - N/A   Unknown
8:15 PM 30.9 °F - 24.8 °F 78% 30.49 in 10.0 mi Calm Calm - N/A   Unknown
8:35 PM 30.7 °F - 25.0 °F 79% 30.48 in 10.0 mi Calm Calm - N/A   Unknown
8:55 PM 30.0 °F - 25.3 °F 83% 30.48 in 10.0 mi Calm Calm - N/A   Unknown
9:15 PM 29.8 °F - 24.8 °F 81% 30.48 in 10.0 mi Calm Calm - N/A   Unknown
9:35 PM 29.8 °F - 24.6 °F 81% 30.48 in 10.0 mi Calm Calm - N/A   Unknown
9:55 PM 29.3 °F - 24.6 °F 83% 30.47 in 10.0 mi Calm Calm - N/A   Unknown
10:15 PM 29.1 °F - 24.6 °F 83% 30.48 in 10.0 mi Calm Calm - N/A   Unknown
10:35 PM 28.6 °F - 24.1 °F 83% 30.47 in 10.0 mi Calm Calm - N/A   Unknown
10:55 PM 28.6 °F - 24.4 °F 84% 30.47 in 10.0 mi Calm Calm - N/A   Unknown
11:15 PM 28.9 °F - 24.8 °F 84% 30.47 in 10.0 mi Calm Calm - N/A   Unknown
11:35 PM 28.2 °F - 24.3 °F 85% 30.47 in 10.0 mi Calm Calm - N/A   Unknown
11:55 PM 28.6 °F - 24.8 °F 86% 30.47 in 10.0 mi Calm Calm - N/A   Unknown